Location: Unspecified
(43.4000°N, 0.0000°E)
Time: 08:51:48
(UTC+00:00)

NOAA 19 - Pass Details

Date: 29 August 2019
Orbit: 840 x 862 km, 99.2° (Epoch: 16 October)

Event Time Altitude Azimuth Distance (km) Brightness Sun altitude
Rises 04:34:59 0° 25° (NNE) 3,420 9.2 -8.6°
Reaches altitude 10° 04:37:43 10° 37° (NE) 2,476 8.7 -8.2°
Maximum altitude 04:42:22 28° 95° (E) 1,545 7.4 -7.4°
Drops below altitude 10° 04:46:58 10° 153° (SSE) 2,453 7.7 -6.6°
Sets 04:49:39 0° 165° (SSE) 3,381 8.3 -6.1°
